Regional Weather Roundup
Issued by NWS San Diego, CA

Home | Current Version | Previous Version | Text Only | Print | Product List | Glossary On
Versions: 1 2 3 4 5 6 7 8 9 10 11 12 13 14 15 16 17 18 19 20 21 22 23 24 25 26 27 28 29 30 31 32 33 34 35 36 37 38 39 40 41 42 43 44 45 46 47 48 49 50
000
ASUS46 KSGX 140511
RWRSGX

SAN DIEGO HOURLY WEATHER ROUNDUP
NATIONAL WEATHER SERVICE SAN DIEGO CA
900 PM PST SAT FEB 13 2016

NOTE: "FAIR" INDICATES FEW OR NO CLOUDS BELOW 12,000 FEET WITH NO
SIGNIFICANT WEATHER AND/OR OBSTRUCTIONS TO VISIBILITY.

CAZ042-043-060-061-PZZ750-775-140600-

GREATER SAN DIEGO AREA

CITY           SKY/WX    TMP DP  RH WIND       PRES   REMARKS
LINDBERGH FLD  PTCLDY    62  52  69 CALM      30.06F
POINT LOMA       N/A     58  52  80 NE5         N/A
NATIONAL CITY    N/A     59  54  84 CALM      30.06F
CHULA VISTA      N/A     56  53  90 CALM      29.99S
IMPERIAL BEACH CLEAR     50  48  93 SE6       30.06F FOG
BROWN FIELD    CLEAR     54  51  90 CALM      30.06S
MIRAMAR MCAS   PTCLDY    56  46  69 E7        30.04F
MONTGOMERY FLD CLEAR     55  52  89 E3        30.06F

$$

NORTH SAN DIEGO COUNTY

CITY           SKY/WX    TMP DP  RH WIND       PRES   REMARKS
CAMP PENDLETON CLEAR     49  47  93 CALM      30.05F FOG
OCEANSIDE AP   CLEAR    N/A N/A N/A N3        30.04F FOG
OCEANSIDE HBR    N/A     56  54  93 CALM      30.07F
VISTA            N/A     53  47  82 CALM      30.03F
CARLSBAD       CLEAR     58  52  80 E3        30.03F
DEL MAR          N/A     55  53  94 CALM      30.07F
FALLBROOK        N/A     56  50  79 E2        30.04S
ESCONDIDO        N/A     60  47  61 CALM      30.05F
SAN MARCOS       N/A     60  46  61 CALM      30.03F
POWAY            N/A     54  47  78 CALM      30.07F

$$

EAST SAN DIEGO COUNTY

CITY           SKY/WX    TMP DP  RH WIND       PRES   REMARKS
RAMONA         CLEAR     49  42  77 CALM      30.07S
SANTEE LAKES     N/A     56  48  74 CALM      30.05S
LA MESA          N/A     59  53  80 CALM      29.99S
JAMUL            N/A     55  48  77 CALM      30.06F
DESCANSO N       N/A     52  33  48 E2        29.96S
MT. LAGUNA OBS   N/A     56   9  15 E2        29.79S
CAMPO            N/A     46  33  60 NE7       30.09S

$$

ORANGE COUNTY AND THE LOS ANGELES BASIN

CITY           SKY/WX    TMP DP  RH WIND       PRES   REMARKS
JOHN WAYNE AP  CLEAR     57  54  89 CALM      30.05S FOG
LAGUNA BEACH     N/A     51  47  86 CALM      30.01F
LAKE FOREST FR   N/A     62  33  34 CALM      29.93S
HUNTINGTON BCH   N/A     57  55  93 NW3       30.08R
LOS ALAMITOS   FAIR      55  53  92 NW6       30.05R
FULLERTON      CLEAR     59  54  83 CALM      30.05R HAZE
LONG BEACH     CLEAR     56  54  93 NW10      30.06R FOG
L.A. AP        MOCLDY    56  53  90 CALM      30.06S FOG
L.A. DOWNTOWN  CLEAR     55  52  89 CALM      30.05R FOG

$$

THE INLAND EMPIRE

CITY           SKY/WX    TMP DP  RH WIND       PRES   REMARKS
CORONA         CLEAR     52  41  66 NW3       30.05S
CHINO          CLEAR     56  46  69 N6        30.06F HAZE
ONTARIO        PTCLDY    62  45  53 NW3       30.06S
SAN BERNARDINO CLEAR     57  39  51 CALM      30.06S
RIVERSIDE AP   CLEAR     62  39  42 E5        30.05F
MORENO VALLEY    N/A     64  40  40 SE5       28.18S
MARCH ARB      CLEAR     57  36  44 SE1       30.07S
HORSETHIEF CYN   N/A     68  26  20 NW8       30.08F
PERRIS           N/A     65  42  43 E2        30.09S
HEMET EAST       N/A     61  27  26 CALM      29.96S
FRENCH VALLEY  FAIR      54  43  66 CALM      30.07F
TEMECULA         N/A     59  47  63 CALM      30.03S

$$

SAN BERNARDINO AND RIVERSIDE COUNTY MOUNTAINS

CITY           SKY/WX    TMP DP  RH WIND       PRES   REMARKS
BIG BEAR AP    CLEAR     32  21  64 CALM      30.33R
PINE COVE        N/A     53  13  20 CALM      30.07S

$$

SOUTHERN DESERT INCLUDING THE COACHELLA VALLEY

CITY           SKY/WX    TMP DP  RH WIND       PRES   REMARKS
PALM SPRINGS   CLEAR     70  34  26 N6        30.04S
THOUSAND PALMS   N/A     69  31  24 W3        30.00R
PALM DESERT      N/A     67  38  34 CALM        N/A
THERMAL        CLEAR     58  35  42 N5        29.98S
IMPERIAL AP    PTCLDY    65  37  35 CALM      29.98S
EL CENTRO NAS  PTCLDY    63  28  26 W7        30.01S
YUMA AZ        MOCLDY    66  30  26 NW3       29.99
MEXICALI       CLEAR     64  27  24 NW7       30.00R

$$

UPPER DESERT

CITY           SKY/WX    TMP DP  RH WIND       PRES   REMARKS
VICTORVILLE AP CLEAR     54  23  30 CALM      30.17F
HESPERIA         N/A     56  27  33 NE2       30.27S
APPLE VALLEY     N/A     52  23  32 CALM      30.18R
PALMDALE       CLEAR     52  33  48 SW6       30.18R
LANCASTER      CLEAR     55  32  41 W8        30.18R
EDWARDS AFB    CLEAR     51  36  55 S7        30.15R
DAGGETT        CLEAR     58  23  26 W7        30.12R
29 PALMS N     CLEAR     61  20  20 NW6       30.18R
NEEDLES        CLEAR     63  24  22 W12       30.03F

$$

REGIONAL REPORTS

CITY           SKY/WX    TMP DP  RH WIND       PRES   REMARKS
SANTA BARBARA  CLEAR     57  52  83 SE9       30.05F
SANDBERG       CLEAR     55  31  39 N22G31    30.25S
LAS VEGAS NV   CLEAR     61  22  22 SW7       30.07R
PHOENIX AZ     PTCLDY    68  33  27 W3        29.97S
TIJUANA        PTCLDY    55  48  76 CALM      30.08S
ENSENADA NW      N/A     57  32  38 NE1       30.04R

$$

OFFSHORE ISLANDS

CITY           SKY/WX    TMP DP  RH WIND       PRES   REMARKS
CATALINA ARPT  CLEAR     70  22  16 NW8       30.10S
SAN NICOLAS IS CLEAR    N/A N/A N/A W16       30.08R

$$

MARINE AND OFFSHORE BUOY REPORTS

STATION/POSITION SKY/WX   TEMP    WIND        PRES    SWELL
                          AIR SEA DIR/SP/G            HT/PER/DIR
                          (F)     (DEG/KT/KT) (MB)    (FT/S/D)
TANNER BANKS               60 60  320/ 16/ 17 1018.2F  11/320/17
S CLEMENTE BASIN           55 61  350/  2/  4 1018.0R   8/290/15
SAN NICOLAS IS.               58                N/A     8/280/14
SO. S. ROSA ISLA           60 59              1017.4R
W. S. BARBARA CH           60 57  310/ 17/ 21 1018.5R  11/300/16
M. S. BARBARA CH           59 60   CALM  /  4 1018.5R
S. MONICA BASIN            56 61  280/ 10/ 12 1017.8R   5/250/16
S PEDRO CHANNEL               60                N/A     5/270/17
DANA POINT                    61                N/A     3/250/15
OCEANSIDE OFFSHR              61                N/A     3/240/15
TORREY PINES OTR              61                N/A     5/280/15
LA JOLLA 1                 58 61  160/  5/  6 1017.7F
SAN DIEGO BAY                 62              1018.5R
POINT LOMA SOUTH              61                N/A     7/270/15

$$




USA.gov is the U.S. government's official web portal to all federal, state and local government web resources and services.